Terminal Aerodrome Forecast
Issued by NWS Jackson, MS

Home | Current Version | Previous Version | Text Only | Print | Product List | Glossary On
Versions: 1 2 3 4 5 6 7 8 9 10 11 12 13 14 15 16 17 18 19 20 21 22 23 24 25
000
FTUS44 KJAN 262300
TAFMEI
TAF
KMEI 262320Z 2700/2724 13006KT P6SM SCT030 BKN120
     FM270300 13006KT P6SM OVC060
     FM271500 14007KT P6SM -RA OVC035
     FM272000 15008KT 5SM -RA BR OVC025=

USA.gov is the U.S. government's official web portal to all federal, state and local government web resources and services.